QPF
0.01 0.00 0.00 0.01 0.01 0.02 0.02 0.01 0.01 0.02 0.01 0.01 0.01 0.01 0.02 0.02 0.02 0.02 0.02 0.02 0.01 0.01 0.00 0.01 0.01 0.00 0.00 0.01 0.01 0.01 0.00 0.00 0.00 0.00 0.00 0.00 0.00 0.01 0.01 0.01 0.01 0.01 0.01
0.01 0.00 0.00 0.01 0.01 0.01 0.01 0.01 0.01 0.01 0.01 0.01 0.01 0.02 0.03 0.03 0.02 0.02 0.02 0.02 0.02 0.02 0.01 0.01 0.01 0.01 0.01 0.01 0.00 0.00 0.00 0.00 0.00 0.00 0.00 0.00 0.00 0.01 0.00 0.01 0.01 0.01 0.01
0.01 0.00 0.00 0.01 0.02 0.01 0.01 0.01 0.01 0.01 0.01 0.01 0.01 0.02 0.02 0.02 0.03 0.03 0.03 0.03 0.03 0.03 0.03 0.02 0.02 0.01 0.01 0.01 0.00 0.00 0.00 0.00 0.00 0.00 0.00 0.01 0.01 0.01 0.01 0.00 0.01 0.01 0.01
0.00 0.00 0.00 0.01 0.01 0.01 0.01 0.01 0.00 0.00 0.01 0.01 0.01 0.01 0.01 0.01 0.02 0.02 0.03 0.03 0.03 0.03 0.03 0.03 0.03 0.01 0.01 0.01 0.01 0.00 0.00 0.00 0.00 0.00 0.00 0.01 0.01 0.01 0.01 0.01 0.01 0.01 0.01
0.00 0.00 0.00 0.00 0.01 0.01 0.01 0.01 0.00 0.00 0.00 0.01 0.01 0.02 0.01 0.01 0.02 0.02 0.02 0.02 0.02 0.02 0.02 0.03 0.03 0.02 0.01 0.01 0.01 0.01 0.00 0.00 0.00 0.00 0.00 0.00 0.00 0.00 0.00 0.01 0.01 0.01 0.01
0.01 0.01 0.00 0.00 0.01 0.01 0.01 0.01 0.00 0.00 0.00 0.00 0.01 0.01 0.01 0.01 0.02 0.02 0.02 0.01 0.01 0.01 0.02 0.02 0.03 0.03 0.02 0.01 0.01 0.01 0.01 0.00 0.00 0.00 0.00 0.00 0.00 0.00 0.00 0.01 0.01 0.01 0.01
0.01 0.00 0.00 0.00 0.01 0.01 0.02 0.01 0.01 0.01 0.00 0.01 0.01 0.01 0.01 0.01 0.01 0.01 0.01 0.01 0.01 0.01 0.02 0.02 0.03 0.03 0.03 0.02 0.02 0.01 0.01 0.00 0.00 0.00 0.01 0.00 0.00 0.00 0.00 0.00 0.00 0.01 0.01
0.01 0.01 0.01 0.00 0.01 0.01 0.01 0.02 0.02 0.01 0.01 0.01 0.02 0.01 0.01 0.01 0.01 0.01 0.01 0.01 0.01 0.01 0.01 0.02 0.03 0.03 0.04 0.03 0.03 0.02 0.02 0.01 0.00 0.00 0.00 0.01 0.00 0.00 0.00 0.00 0.00 0.01 0.01
0.02 0.02 0.01 0.01 0.01 0.01 0.01 0.02 0.02 0.02 0.02 0.02 0.02 0.02 0.01 0.00 0.00 0.01 0.01 0.01 0.01 0.01 0.01 0.01 0.02 0.03 0.03 0.03 0.03 0.03 0.02 0.01 0.00 0.00 0.00 0.00 0.00 0.00 0.00 0.00 0.00 0.01 0.01
0.02 0.02 0.01 0.02 0.01 0.02 0.02 0.01 0.01 0.01 0.01 0.01 0.01 0.01 0.00 0.00 0.00 0.00 0.00 0.00 0.01 0.01 0.01 0.01 0.01 0.02 0.03 0.03 0.04 0.03 0.03 0.02 0.01 0.01 0.01 0.01 0.00 0.00 0.00 0.00 0.00 0.01 0.01
0.02 0.02 0.02 0.03 0.03 0.03 0.02 0.01 0.02 0.02 0.01 0.01 0.01 0.01 0.00 0.01 0.01 0.01 0.00 0.00 0.00 0.00 0.01 0.01 0.01 0.02 0.02 0.02 0.03 0.03 0.04 0.02 0.02 0.02 0.01 0.02 0.01 0.01 0.00 0.00 0.00 0.01 0.01
0.02 0.02 0.03 0.03 0.03 0.04 0.03 0.03 0.04 0.03 0.02 0.01 0.01 0.01 0.01 0.02 0.02 0.01 0.00 0.00 0.00 0.00 0.01 0.01 0.01 0.02 0.02 0.03 0.04 0.04 0.04 0.03 0.03 0.03 0.02 0.03 0.02 0.01 0.01 0.01 0.01 0.01 0.01
0.04 0.04 0.04 0.05 0.05 0.05 0.06 0.05 0.04 0.04 0.04 0.04 0.04 0.02 0.03 0.04 0.03 0.02 0.01 0.01 0.00 0.00 0.01 0.01 0.02 0.02 0.03 0.04 0.05 0.05 0.05 0.05 0.06 0.05 0.04 0.03 0.03 0.03 0.02 0.02 0.02 0.01 0.01
0.06 0.06 0.05 0.05 0.05 0.06 0.07 0.06 0.05 0.04 0.04 0.05 0.05 0.03 0.03 0.04 0.04 0.03 0.01 0.00 0.01 0.01 0.01 0.02 0.02 0.02 0.03 0.03 0.04 0.05 0.05 0.06 0.07 0.07 0.07 0.06 0.04 0.03 0.03 0.03 0.02 0.02 0.02
0.05 0.05 0.05 0.05 0.04 0.03 0.04 0.04 0.04 0.04 0.04 0.05 0.05 0.05 0.05 0.04 0.04 0.02 0.01 0.00 0.00 0.00 0.01 0.01 0.02 0.02 0.03 0.03 0.03 0.04 0.05 0.07 0.08 0.08 0.08 0.07 0.05 0.04 0.04 0.04 0.03 0.03 0.03
0.05 0.04 0.05 0.05 0.04 0.03 0.03 0.02 0.02 0.03 0.03 0.03 0.04 0.04 0.05 0.05 0.05 0.04 0.03 0.01 0.01 0.01 0.01 0.02 0.02 0.02 0.02 0.02 0.03 0.04 0.04 0.05 0.07 0.09 0.09 0.09 0.06 0.05 0.05 0.04 0.04 0.04 0.04
0.05 0.04 0.03 0.03 0.04 0.03 0.02 0.02 0.02 0.02 0.02 0.02 0.03 0.03 0.03 0.03 0.03 0.04 0.05 0.05 0.03 0.03 0.03 0.02 0.02 0.03 0.02 0.02 0.02 0.02 0.03 0.04 0.05 0.07 0.10 0.10 0.09 0.07 0.06 0.06 0.06 0.06 0.06
0.05 0.04 0.02 0.02 0.02 0.02 0.02 0.01 0.01 0.02 0.02 0.02 0.03 0.03 0.03 0.02 0.02 0.02 0.03 0.04 0.04 0.04 0.03 0.02 0.02 0.02 0.02 0.02 0.02 0.02 0.01 0.02 0.03 0.06 0.10 0.14 0.14 0.12 0.08 0.06 0.05 0.06 0.06
0.04 0.03 0.02 0.02 0.01 0.02 0.01 0.01 0.01 0.01 0.02 0.02 0.02 0.02 0.02 0.01 0.02 0.02 0.03 0.05 0.04 0.03 0.03 0.02 0.02 0.02 0.01 0.02 0.02 0.02 0.01 0.02 0.03 0.04 0.06 0.11 0.16 0.17 0.12 0.07 0.06 0.06 0.05
0.03 0.02 0.01 0.01 0.01 0.01 0.01 0.00 0.00 0.01 0.01 0.01 0.01 0.01 0.01 0.01 0.01 0.01 0.02 0.02 0.03 0.04 0.04 0.04 0.03 0.02 0.01 0.02 0.02 0.01 0.02 0.03 0.03 0.03 0.05 0.07 0.10 0.13 0.13 0.09 0.07 0.06 0.06
0.03 0.02 0.01 0.01 0.01 0.01 0.01 0.01 0.00 0.01 0.01 0.01 0.01 0.00 0.00 0.00 0.00 0.01 0.01 0.01 0.00 0.01 0.01 0.02 0.03 0.02 0.01 0.01 0.01 0.02 0.01 0.02 0.02 0.03 0.06 0.08 0.10 0.12 0.13 0.11 0.09 0.08 0.07
0.03 0.02 0.01 0.01 0.01 0.00 0.00 0.01 0.01 0.01 0.01 0.01 0.01 0.01 0.00 0.00 0.00 0.00 0.00 0.00 0.00 0.00 0.01 0.01 0.01 0.01 0.01 0.01 0.02 0.02 0.02 0.02 0.02 0.02 0.03 0.05 0.07 0.09 0.10 0.09 0.09 0.09 0.08
0.02 0.01 0.01 0.01 0.00 0.00 0.00 0.00 0.00 0.01 0.01 0.01 0.01 0.01 0.01 0.01 0.00 0.00 0.00 0.00 0.00 0.00 0.00 0.00 0.00 0.01 0.01 0.01 0.01 0.02 0.03 0.03 0.02 0.03 0.02 0.02 0.04 0.06 0.07 0.08 0.09 0.09 0.09
0.01 0.01 0.01 0.00 0.00 0.00 0.00 0.00 0.00 0.00 0.00 0.00 0.00 0.00 0.00 0.01 0.00 0.00 0.00 0.00 0.00 0.00 0.00 0.00 0.00 0.00 0.01 0.01 0.01 0.02 0.02 0.02 0.02 0.03 0.02 0.02 0.03 0.05 0.06 0.07 0.08 0.09 0.10
0.01 0.01 0.01 0.01 0.00 0.00 0.00 0.00 0.00 0.00 0.00 0.00 0.00 0.00 0.00 0.00 0.00 0.00 0.00 0.00 0.00 0.00 0.00 0.00 0.00 0.00 0.00 0.00 0.01 0.01 0.01 0.01 0.02 0.03 0.03 0.02 0.02 0.03 0.04 0.07 0.08 0.09 0.08
0.01 0.01 0.01 0.01 0.00 0.00 0.00 0.00 0.00 0.00 0.00 0.00 0.00 0.00 0.00 0.00 0.00 0.00 0.00 0.00 0.00 0.00 0.00 0.00 0.00 0.00 0.00 0.00 0.01 0.01 0.01 0.01 0.01 0.02 0.04 0.04 0.04 0.04 0.04 0.05 0.06 0.08 0.09
MSLP
1017.85 1017.35 1016.85 1016.49 1016.34 1016.39 1016.60 1016.85 1017.07 1017.17 1017.14 1017.01 1016.84 1016.70 1016.65 1016.71 1016.85 1017.05 1017.22 1017.33 1017.33 1017.24 1017.08 1016.90 1016.74 1016.65 1016.63 1016.67 1016.74 1016.80 1016.84 1016.84 1016.79 1016.73 1016.67 1016.63 1016.61 1016.62 1016.62 1016.61 1016.58 1016.51 1016.42
1018.06 1017.57 1017.09 1016.74 1016.60 1016.65 1016.84 1017.06 1017.24 1017.31 1017.26 1017.12 1016.95 1016.82 1016.78 1016.84 1016.99 1017.18 1017.34 1017.43 1017.43 1017.33 1017.18 1017.02 1016.88 1016.82 1016.81 1016.86 1016.92 1016.97 1016.98 1016.95 1016.88 1016.80 1016.73 1016.69 1016.69 1016.70 1016.72 1016.72 1016.69 1016.63 1016.54
1018.30 1017.82 1017.36 1017.04 1016.90 1016.93 1017.09 1017.28 1017.42 1017.47 1017.41 1017.27 1017.12 1017.01 1016.98 1017.04 1017.16 1017.31 1017.44 1017.49 1017.46 1017.35 1017.20 1017.06 1016.96 1016.92 1016.94 1016.99 1017.04 1017.07 1017.06 1016.99 1016.90 1016.80 1016.72 1016.68 1016.67 1016.70 1016.73 1016.74 1016.72 1016.67 1016.60
1018.53 1018.09 1017.66 1017.36 1017.23 1017.25 1017.37 1017.52 1017.63 1017.65 1017.59 1017.47 1017.33 1017.24 1017.21 1017.26 1017.35 1017.45 1017.51 1017.51 1017.43 1017.30 1017.16 1017.04 1016.96 1016.95 1016.99 1017.06 1017.11 1017.11 1017.07 1016.97 1016.85 1016.73 1016.63 1016.58 1016.58 1016.61 1016.65 1016.67 1016.67 1016.64 1016.60
1018.73 1018.33 1017.96 1017.71 1017.59 1017.60 1017.69 1017.79 1017.86 1017.85 1017.78 1017.67 1017.55 1017.47 1017.45 1017.47 1017.52 1017.56 1017.55 1017.48 1017.36 1017.22 1017.07 1016.97 1016.92 1016.94 1017.00 1017.06 1017.10 1017.09 1017.01 1016.89 1016.74 1016.59 1016.48 1016.43 1016.42 1016.44 1016.49 1016.53 1016.54 1016.54 1016.52
1018.88 1018.56 1018.27 1018.08 1017.99 1018.00 1018.05 1018.09 1018.10 1018.06 1017.96 1017.84 1017.73 1017.66 1017.63 1017.63 1017.64 1017.62 1017.55 1017.43 1017.27 1017.10 1016.96 1016.87 1016.84 1016.88 1016.94 1017.01 1017.03 1017.00 1016.90 1016.75 1016.57 1016.41 1016.29 1016.22 1016.21 1016.23 1016.27 1016.32 1016.35 1016.37 1016.39
1018.97 1018.75 1018.57 1018.45 1018.41 1018.41 1018.43 1018.41 1018.35 1018.24 1018.11 1017.97 1017.86 1017.78 1017.74 1017.72 1017.69 1017.63 1017.51 1017.35 1017.17 1016.98 1016.84 1016.76 1016.74 1016.78 1016.84 1016.89 1016.89 1016.83 1016.71 1016.54 1016.36 1016.20 1016.07 1016.00 1015.98 1015.99 1016.03 1016.08 1016.12 1016.17 1016.22
1019.02 1018.92 1018.85 1018.83 1018.84 1018.84 1018.81 1018.73 1018.59 1018.41 1018.22 1018.05 1017.92 1017.84 1017.79 1017.75 1017.70 1017.60 1017.46 1017.27 1017.06 1016.87 1016.72 1016.64 1016.62 1016.64 1016.69 1016.71 1016.68 1016.60 1016.46 1016.29 1016.11 1015.95 1015.83 1015.76 1015.74 1015.75 1015.78 1015.83 1015.88 1015.95 1016.02
1019.07 1019.08 1019.14 1019.20 1019.25 1019.25 1019.18 1019.03 1018.81 1018.56 1018.32 1018.11 1017.96 1017.86 1017.80 1017.75 1017.68 1017.56 1017.39 1017.19 1016.97 1016.77 1016.61 1016.51 1016.47 1016.47 1016.48 1016.46 1016.40 1016.29 1016.15 1015.98 1015.81 1015.67 1015.57 1015.52 1015.51 1015.52 1015.54 1015.58 1015.64 1015.71 1015.81
1019.14 1019.26 1019.42 1019.55 1019.63 1019.62 1019.51 1019.30 1019.02 1018.71 1018.42 1018.18 1018.01 1017.90 1017.83 1017.76 1017.67 1017.54 1017.35 1017.13 1016.90 1016.69 1016.51 1016.39 1016.32 1016.27 1016.23 1016.16 1016.07 1015.93 1015.78 1015.62 1015.47 1015.37 1015.30 1015.27 1015.26 1015.27 1015.30 1015.33 1015.38 1015.45 1015.55
1019.26 1019.47 1019.70 1019.88 1019.97 1019.94 1019.79 1019.53 1019.21 1018.86 1018.54 1018.29 1018.11 1017.99 1017.91 1017.83 1017.72 1017.57 1017.36 1017.12 1016.87 1016.64 1016.44 1016.29 1016.17 1016.07 1015.97 1015.85 1015.71 1015.55 1015.38 1015.23 1015.11 1015.03 1014.99 1014.98 1014.99 1015.00 1015.02 1015.04 1015.07 1015.13 1015.23
1019.45 1019.71 1019.97 1020.16 1020.24 1020.19 1020.01 1019.72 1019.38 1019.02 1018.71 1018.46 1018.29 1018.17 1018.08 1017.99 1017.86 1017.68 1017.45 1017.18 1016.91 1016.65 1016.42 1016.22 1016.05 1015.90 1015.74 1015.56 1015.37 1015.18 1015.00 1014.84 1014.73 1014.66 1014.64 1014.65 1014.66 1014.68 1014.68 1014.69 1014.70 1014.74 1014.82
1019.69 1019.97 1020.22 1020.39 1020.45 1020.37 1020.17 1019.87 1019.53 1019.20 1018.92 1018.70 1018.55 1018.44 1018.35 1018.24 1018.08 1017.87 1017.61 1017.32 1017.02 1016.73 1016.47 1016.23 1016.01 1015.80 1015.58 1015.35 1015.11 1014.87 1014.65 1014.48 1014.35 1014.29 1014.26 1014.26 1014.27 1014.28 1014.27 1014.26 1014.26 1014.27 1014.33
1019.95 1020.22 1020.44 1020.57 1020.58 1020.47 1020.26 1019.97 1019.67 1019.39 1019.16 1018.99 1018.88 1018.79 1018.70 1018.57 1018.39 1018.15 1017.86 1017.53 1017.21 1016.89 1016.60 1016.33 1016.07 1015.81 1015.54 1015.24 1014.94 1014.65 1014.39 1014.17 1014.02 1013.92 1013.87 1013.85 1013.84 1013.83 1013.81 1013.78 1013.76 1013.75 1013.78
1020.19 1020.43 1020.60 1020.68 1020.64 1020.51 1020.29 1020.04 1019.79 1019.57 1019.41 1019.31 1019.24 1019.18 1019.10 1018.96 1018.75 1018.49 1018.17 1017.82 1017.48 1017.15 1016.84 1016.54 1016.25 1015.95 1015.62 1015.28 1014.92 1014.56 1014.24 1013.96 1013.75 1013.60 1013.50 1013.44 1013.41 1013.37 1013.34 1013.30 1013.26 1013.24 1013.24
1020.37 1020.57 1020.69 1020.72 1020.65 1020.49 1020.29 1020.08 1019.89 1019.74 1019.66 1019.62 1019.60 1019.57 1019.49 1019.35 1019.13 1018.85 1018.52 1018.17 1017.82 1017.49 1017.17 1016.86 1016.55 1016.21 1015.85 1015.45 1015.03 1014.61 1014.22 1013.87 1013.58 1013.36 1013.21 1013.10 1013.03 1012.98 1012.94 1012.90 1012.87 1012.84 1012.82
1020.46 1020.64 1020.72 1020.71 1020.61 1020.46 1020.27 1020.10 1019.97 1019.90 1019.88 1019.89 1019.92 1019.91 1019.85 1019.71 1019.50 1019.22 1018.90 1018.56 1018.22 1017.89 1017.58 1017.27 1016.94 1016.58 1016.18 1015.74 1015.27 1014.79 1014.33 1013.91 1013.55 1013.27 1013.05 1012.90 1012.80 1012.74 1012.71 1012.69 1012.67 1012.65 1012.62
1020.44 1020.62 1020.69 1020.67 1020.56 1020.42 1020.27 1020.14 1020.06 1020.04 1020.07 1020.13 1020.18 1020.19 1020.14 1020.01 1019.82 1019.56 1019.26 1018.95 1018.64 1018.33 1018.03 1017.73 1017.39 1017.02 1016.59 1016.12 1015.61 1015.09 1014.58 1014.10 1013.68 1013.34 1013.08 1012.90 1012.79 1012.73 1012.71 1012.72 1012.74 1012.74 1012.72
1020.33 1020.53 1020.62 1020.61 1020.53 1020.41 1020.29 1020.20 1020.17 1020.18 1020.24 1020.31 1020.38 1020.40 1020.36 1020.26 1020.08 1019.86 1019.61 1019.34 1019.06 1018.79 1018.51 1018.21 1017.88 1017.50 1017.06 1016.57 1016.04 1015.49 1014.95 1014.45 1014.00 1013.62 1013.34 1013.14 1013.02 1012.98 1012.99 1013.04 1013.10 1013.13 1013.12
1020.14 1020.39 1020.52 1020.55 1020.51 1020.44 1020.36 1020.31 1020.30 1020.33 1020.40 1020.47 1020.53 1020.55 1020.52 1020.44 1020.30 1020.13 1019.92 1019.71 1019.48 1019.25 1018.99 1018.70 1018.37 1017.99 1017.55 1017.06 1016.53 1015.99 1015.45 1014.94 1014.49 1014.11 1013.82 1013.62 1013.52 1013.49 1013.54 1013.62 1013.72 1013.79 1013.80
1019.91 1020.22 1020.42 1020.51 1020.53 1020.51 1020.48 1020.46 1020.47 1020.50 1020.56 1020.61 1020.66 1020.67 1020.65 1020.58 1020.49 1020.36 1020.21 1020.05 1019.88 1019.68 1019.45 1019.17 1018.85 1018.48 1018.05 1017.57 1017.07 1016.56 1016.06 1015.58 1015.15 1014.80 1014.52 1014.33 1014.23 1014.22 1014.29 1014.40 1014.52 1014.62 1014.65
1019.67 1020.05 1020.32 1020.48 1020.57 1020.60 1020.62 1020.63 1020.65 1020.69 1020.72 1020.76 1020.77 1020.77 1020.75 1020.70 1020.64 1020.57 1020.48 1020.37 1020.24 1020.08 1019.87 1019.62 1019.31 1018.95 1018.55 1018.11 1017.66 1017.20 1016.75 1016.33 1015.95 1015.63 1015.37 1015.19 1015.10 1015.09 1015.15 1015.26 1015.39 1015.50 1015.54
1019.44 1019.88 1020.21 1020.44 1020.59 1020.69 1020.75 1020.80 1020.83 1020.86 1020.88 1020.89 1020.88 1020.87 1020.84 1020.81 1020.78 1020.75 1020.70 1020.65 1020.56 1020.43 1020.25 1020.02 1019.73 1019.40 1019.04 1018.66 1018.27 1017.88 1017.51 1017.16 1016.84 1016.55 1016.31 1016.13 1016.02 1015.98 1016.02 1016.10 1016.21 1016.29 1016.33
1019.23 1019.71 1020.09 1020.37 1020.57 1020.72 1020.83 1020.91 1020.97 1021.00 1021.01 1021.00 1020.98 1020.95 1020.92 1020.90 1020.89 1020.89 1020.89 1020.87 1020.82 1020.72 1020.57 1020.36 1020.11 1019.82 1019.51 1019.19 1018.88 1018.57 1018.28 1018.01 1017.74 1017.49 1017.26 1017.06 1016.92 1016.83 1016.80 1016.82 1016.87 1016.91 1016.92
1019.02 1019.52 1019.91 1020.22 1020.47 1020.66 1020.81 1020.93 1021.01 1021.06 1021.08 1021.07 1021.04 1021.00 1020.97 1020.96 1020.97 1020.99 1021.02 1021.03 1021.01 1020.94 1020.82 1020.64 1020.42 1020.18 1019.93 1019.68 1019.44 1019.22 1019.01 1018.81 1018.59 1018.36 1018.14 1017.91 1017.71 1017.55 1017.44 1017.37 1017.34 1017.33 1017.29
1018.81 1019.28 1019.66 1019.97 1020.24 1020.46 1020.65 1020.81 1020.93 1021.01 1021.05 1021.06 1021.04 1021.01 1020.98 1020.98 1020.99 1021.03 1021.08 1021.11 1021.11 1021.07 1020.97 1020.83 1020.65 1020.46 1020.26 1020.09 1019.93 1019.78 1019.65 1019.50 1019.33 1019.12 1018.89 1018.63 1018.38 1018.14 1017.93 1017.77 1017.65 1017.56 1017.46
Thickness
5744 5744 5743 5742 5742 5742 5742 5742 5742 5741 5741 5741 5740 5740 5740 5740 5739 5739 5739 5738 5738 5738 5737 5737 5737 5736 5736 5735 5735 5734 5734 5734 5734 5733 5733 5733 5733 5733 5733 5732 5732 5732 5732
5744 5742 5740 5739 5739 5738 5738 5738 5738 5738 5737 5737 5737 5737 5736 5736 5736 5736 5736 5736 5735 5735 5735 5735 5734 5734 5733 5732 5732 5731 5731 5731 5731 5730 5730 5730 5730 5730 5729 5729 5729 5728 5728
5741 5739 5736 5736 5735 5735 5734 5734 5734 5734 5733 5733 5733 5733 5733 5733 5733 5733 5732 5732 5732 5732 5732 5731 5731 5731 5730 5729 5729 5728 5728 5728 5728 5728 5728 5727 5727 5727 5726 5725 5725 5725 5724
5737 5735 5733 5732 5731 5731 5730 5730 5730 5729 5729 5729 5729 5729 5729 5729 5729 5729 5729 5728 5728 5728 5728 5728 5728 5727 5727 5726 5726 5725 5725 5725 5725 5725 5725 5725 5725 5724 5723 5722 5722 5721 5721
5732 5730 5728 5727 5727 5726 5726 5725 5725 5725 5725 5724 5724 5724 5724 5724 5724 5724 5724 5724 5724 5724 5724 5724 5724 5723 5723 5723 5722 5722 5722 5722 5722 5722 5722 5723 5722 5721 5720 5719 5718 5718 5717
5727 5725 5723 5722 5722 5721 5721 5721 5720 5720 5720 5719 5719 5719 5719 5719 5719 5720 5720 5720 5720 5720 5720 5720 5720 5720 5719 5719 5719 5719 5718 5718 5718 5718 5719 5719 5719 5718 5717 5716 5715 5714 5713
5721 5720 5718 5717 5717 5716 5716 5715 5715 5714 5714 5714 5714 5714 5714 5714 5714 5714 5715 5715 5715 5715 5715 5715 5715 5715 5715 5715 5715 5715 5715 5715 5715 5715 5715 5715 5715 5715 5713 5712 5711 5710 5710
5715 5714 5713 5712 5711 5711 5711 5710 5710 5709 5709 5709 5708 5708 5709 5709 5709 5709 5709 5709 5709 5710 5710 5710 5710 5711 5711 5711 5711 5711 5711 5711 5711 5712 5712 5712 5712 5711 5710 5708 5707 5707 5706
5709 5708 5707 5706 5705 5705 5705 5704 5704 5703 5703 5703 5703 5703 5703 5703 5704 5704 5703 5703 5704 5704 5704 5705 5705 5706 5706 5706 5707 5707 5707 5707 5707 5708 5708 5709 5708 5707 5706 5704 5703 5702 5702
5701 5701 5700 5700 5700 5700 5699 5699 5698 5698 5697 5697 5697 5697 5697 5698 5698 5698 5698 5697 5698 5698 5698 5699 5700 5700 5701 5701 5702 5702 5702 5702 5703 5704 5704 5704 5704 5703 5702 5700 5699 5698 5698
5692 5693 5693 5694 5694 5694 5694 5693 5693 5692 5691 5690 5690 5690 5690 5691 5691 5691 5691 5691 5692 5692 5692 5693 5694 5695 5695 5696 5697 5697 5697 5697 5698 5699 5699 5700 5699 5698 5697 5696 5695 5694 5693
5683 5684 5686 5687 5687 5687 5687 5687 5686 5686 5685 5684 5683 5683 5683 5683 5684 5684 5684 5684 5685 5685 5686 5686 5687 5688 5689 5690 5691 5691 5692 5692 5693 5694 5694 5695 5694 5693 5692 5691 5690 5690 5689
5676 5676 5678 5679 5680 5680 5680 5680 5679 5679 5678 5677 5676 5676 5676 5676 5675 5676 5676 5676 5677 5677 5678 5679 5680 5681 5682 5683 5684 5685 5686 5686 5687 5688 5689 5689 5689 5688 5687 5686 5686 5685 5684
5670 5670 5671 5672 5673 5672 5672 5672 5672 5671 5670 5670 5669 5668 5668 5667 5667 5667 5667 5668 5669 5669 5670 5671 5672 5673 5675 5676 5677 5678 5679 5680 5681 5682 5683 5683 5683 5682 5682 5681 5680 5679 5679
5664 5664 5665 5665 5665 5665 5665 5664 5663 5663 5662 5662 5661 5660 5659 5658 5657 5657 5658 5659 5660 5660 5662 5662 5664 5665 5666 5668 5669 5670 5671 5673 5674 5675 5675 5676 5676 5676 5675 5674 5673 5673 5673
5658 5658 5658 5658 5658 5657 5657 5656 5656 5655 5654 5654 5652 5651 5650 5649 5648 5648 5649 5649 5649 5650 5652 5653 5654 5656 5657 5659 5660 5662 5663 5665 5666 5668 5668 5669 5668 5669 5668 5667 5666 5666 5666
5652 5652 5651 5652 5651 5650 5649 5649 5648 5647 5646 5645 5643 5642 5641 5640 5640 5639 5639 5639 5639 5640 5642 5643 5645 5646 5648 5650 5651 5653 5655 5656 5658 5659 5660 5660 5660 5660 5660 5660 5659 5659 5659
5645 5645 5644 5645 5644 5643 5641 5641 5640 5638 5637 5636 5635 5633 5632 5632 5631 5631 5630 5630 5630 5631 5632 5633 5634 5636 5637 5639 5640 5643 5646 5648 5649 5650 5651 5651 5651 5651 5651 5651 5650 5651 5651
5638 5638 5637 5637 5636 5635 5634 5633 5631 5630 5629 5627 5626 5625 5624 5623 5622 5622 5622 5621 5620 5621 5622 5623 5624 5624 5626 5627 5629 5633 5636 5638 5640 5641 5641 5641 5641 5640 5640 5641 5641 5641 5641
5631 5631 5630 5629 5628 5627 5626 5625 5624 5622 5620 5619 5617 5616 5615 5615 5614 5613 5613 5612 5612 5612 5612 5613 5613 5614 5615 5617 5620 5624 5626 5628 5630 5630 5630 5630 5630 5629 5629 5629 5630 5631 5630
5624 5623 5622 5621 5620 5619 5617 5616 5614 5612 5611 5610 5609 5608 5607 5606 5605 5604 5603 5603 5602 5601 5601 5602 5602 5603 5604 5606 5608 5611 5617 5619 5619 5619 5619 5618 5618 5618 5618 5618 5618 5619 5619
5617 5616 5615 5614 5613 5611 5610 5608 5606 5605 5603 5602 5601 5599 5598 5597 5596 5595 5594 5593 5593 5592 5592 5591 5591 5591 5592 5592 5592 5595 5600 5604 5606 5608 5606 5605 5605 5605 5605 5606 5606 5607 5607
5610 5609 5609 5607 5606 5604 5603 5601 5600 5598 5596 5594 5593 5592 5591 5589 5588 5586 5585 5585 5584 5583 5582 5581 5580 5579 5578 5579 5579 5579 5580 5583 5586 5592 5593 5592 5591 5592 5592 5593 5593 5594 5594
5605 5604 5602 5600 5599 5597 5595 5593 5591 5590 5588 5587 5586 5585 5584 5582 5580 5578 5577 5576 5575 5573 5572 5571 5570 5568 5567 5566 5567 5567 5566 5566 5568 5573 5577 5578 5577 5577 5577 5578 5579 5579 5580
5601 5598 5596 5594 5592 5590 5588 5587 5584 5582 5581 5580 5579 5577 5576 5574 5572 5570 5568 5567 5565 5564 5562 5561 5559 5558 5556 5555 5554 5554 5554 5554 5555 5554 5558 5561 5562 5563 5563 5564 5565 5565 5566
5595 5592 5589 5587 5585 5583 5581 5580 5578 5576 5574 5573 5571 5569 5567 5566 5564 5562 5560 5557 5556 5554 5552 5551 5549 5548 5546 5544 5543 5542 5541 5541 5540 5540 5541 5544 5546 5549 5551 5552 5552 5552 5553